Location: Miles
(41.4492°N, 81.6087°W)
Time: 15:09:53
(UTC+00:00)

A-11 Canister half - Visible Passes

Search period start: 13 September 2024 00:00
Search period end: 23 September 2024 00:00
Orbit: 1515 x 1684 km, 47.2° (Epoch: 13 September)

Date Brightness Start Highest point End Pass type
(mag) Time Alt. Az. Time Alt. Az. Time Alt. Az.
13 Sep 9.0 01:29:50 10° WSW 01:39:13 82° NNW 01:47:25 15° ENE visible
13 Sep 9.2 03:35:41 10° W 03:44:51 61° N 03:45:35 60° NNE visible
13 Sep 10.4 05:41:07 10° WNW 05:43:44 22° WNW 05:43:44 22° WNW visible
14 Sep 9.0 01:06:48 10° WSW 01:16:14 85° NNW 01:25:20 11° ENE visible
14 Sep 9.2 03:12:38 10° W 03:21:49 61° N 03:23:30 54° NE visible
14 Sep 10.2 05:18:08 10° WNW 05:21:40 27° WNW 05:21:40 27° WNW visible
15 Sep 9.0 00:43:48 10° WSW 00:53:14 87° NNW 01:02:32 10° ENE visible
15 Sep 9.2 02:49:35 10° W 02:58:47 61° N 03:01:25 47° NE visible
15 Sep 10.0 04:55:08 10° WNW 04:59:34 33° WNW 04:59:34 33° WNW visible
16 Sep 9.0 00:20:47 10° WSW 00:30:15 90° SE 00:39:33 10° ENE visible
16 Sep 9.2 02:26:31 10° W 02:35:45 62° N 02:39:20 40° ENE visible
16 Sep 9.8 04:32:08 10° WNW 04:37:29 40° WNW 04:37:29 40° WNW visible
16 Sep 9.0 23:57:47 10° WSW 00:07:16 87° SSE 00:16:34 10° ENE visible
17 Sep 9.2 02:03:28 10° W 02:12:43 62° N 02:17:15 33° ENE visible
17 Sep 9.5 04:09:08 10° WNW 04:15:25 48° NW 04:15:25 48° NW visible
18 Sep 9.2 01:40:24 10° W 01:49:41 62° N 01:55:11 27° ENE visible
18 Sep 9.3 03:46:08 10° WNW 03:53:21 57° NW 03:53:21 57° NW visible
18 Sep 11.0 05:51:16 10° WNW 05:51:30 11° WNW 05:51:30 11° WNW visible
19 Sep 9.2 01:17:20 10° W 01:26:38 63° N 01:33:07 22° ENE visible
19 Sep 9.1 03:23:07 10° WNW 03:31:17 66° NNW 03:31:17 66° NNW visible
19 Sep 10.8 05:28:15 10° WNW 05:29:27 15° WNW 05:29:27 15° WNW visible
20 Sep 9.2 00:54:16 10° W 01:03:36 64° N 01:11:04 17° ENE visible
20 Sep 8.9 03:00:06 10° WNW 03:09:14 71° N 03:09:14 71° N visible
20 Sep 10.6 05:05:15 10° WNW 05:07:24 19° WNW 05:07:24 19° WNW visible
21 Sep 9.3 00:31:13 10° W 00:40:34 65° N 00:49:02 13° ENE visible
21 Sep 8.9 02:37:05 10° WNW 02:46:23 69° NNE 02:47:12 66° NE visible
21 Sep 10.4 04:42:14 10° WNW 04:45:22 24° WNW 04:45:22 24° WNW visible
22 Sep 9.3 00:08:08 10° W 00:17:33 66° NNW 00:26:46 10° ENE visible
22 Sep 9.0 02:14:03 10° WNW 02:23:21 68° NNE 02:25:11 57° ENE visible
22 Sep 10.2 04:19:14 10° WNW 04:23:20 30° WNW 04:23:20 30° WNW visible
